Mount Sterling, KY

11:45 AM EST on December 03, 2016 (GMT -0500)
Mount Sterling-Montgomery County

Weather History for KIOB - February, 2013

Change the Weather History Date:

Tuesday, February 5, 2013

  Actual Average Record
Temperature  
Mean Temperature 44 °F -  
Max Temperature 48 °F 43 °F 48 °F (2013)
Min Temperature 37 °F 22 °F 14 °F (2015)
Degree Days  
Heating Degree Days 22    
Moisture  
Dew Point 36 °F    
Average Humidity 78    
Maximum Humidity 100    
Minimum Humidity 58    
Precipitation  
Precipitation 0.00 in - - ()
Sea Level Pressure  
Sea Level Pressure 29.92 in    
Wind  
Wind Speed 9 mph (West)    
Max Wind Speed 16 mph    
Max Gust Speed 22 mph    
Visibility 10 miles    
Events      
Averages and records for this station are not official NWS values.
T = Trace of Precipitation, MM = Missing Value Source: NWS Daily Summary

Daily Weather History Graph

Daily Weather History Graph

Search for Another Location

Airport or City:

Trip Planner

Search our weather history database for the weather conditions in past years. The results will help you decide how hot, cold, wet, or windy it might be!

Date:

Astronomy

Feb. 05, 2013 Rise Set
Actual Time 7:36 AM EST 6:03 PM EST
Civil Twilight 7:09 AM EST 6:31 PM EST
Nautical Twilight 6:37 AM EST 7:02 PM EST
Astronomical Twilight 6:06 AM EST 7:33 PM EST
Moon 3:15 AM EST (2/5) 1:22 PM EST (2/5)
Length of Visible Light 11h 22m
Length of Day
10h 27m
Waning Crescent, 27% of the Moon is Illuminated
Feb 5
Waning Crescent
Feb 10
New
Feb 17
First Quarter
Feb 25
Full
Mar 4
Last Quarter

Hourly Weather History & Observations

Time (EST) Temp. Windchill Dew Point Humidity Pressure Visibility Wind Dir Wind Speed Gust Speed Precip Events Conditions
12:15 AM 41.0 °F 35.2 °F 39.2 °F 93% 29.89 in 10.0 mi West 9.2 mph - N/A   Overcast
12:35 AM 41.0 °F 36.4 °F 39.2 °F 93% 29.89 in 10.0 mi West 6.9 mph - N/A   Overcast
12:55 AM 41.0 °F 35.2 °F 41.0 °F 100% 29.89 in 10.0 mi West 9.2 mph - N/A   Overcast
1:15 AM 41.0 °F 37.1 °F 39.2 °F 93% 29.88 in 10.0 mi WNW 5.8 mph - N/A   Overcast
1:35 AM 41.0 °F 37.1 °F 39.2 °F 93% 29.88 in 10.0 mi WNW 5.8 mph - N/A   Overcast
1:55 AM 41.0 °F 36.4 °F 39.2 °F 93% 29.89 in 10.0 mi West 6.9 mph - N/A   Overcast
2:15 AM 41.0 °F 36.4 °F 39.2 °F 93% 29.89 in 10.0 mi West 6.9 mph - N/A   Overcast
2:35 AM 41.0 °F 35.8 °F 39.2 °F 93% 29.89 in 10.0 mi West 8.1 mph - N/A   Overcast
2:55 AM 41.0 °F 38.0 °F 39.2 °F 93% 29.89 in 10.0 mi West 4.6 mph - N/A   Overcast
3:15 AM 41.0 °F 37.1 °F 41.0 °F 100% 29.88 in 10.0 mi West 5.8 mph - N/A   Overcast
3:35 AM 41.0 °F 35.8 °F 39.2 °F 93% 29.88 in 10.0 mi West 8.1 mph - N/A   Overcast
3:55 AM 41.0 °F 36.4 °F 39.2 °F 93% 29.88 in 10.0 mi West 6.9 mph - N/A   Overcast
4:15 AM 41.0 °F 36.4 °F 39.2 °F 93% 29.87 in 10.0 mi West 6.9 mph - N/A   Overcast
4:35 AM 41.0 °F 36.4 °F 39.2 °F 93% 29.86 in 10.0 mi WSW 6.9 mph - N/A   Overcast
4:55 AM 41.0 °F 35.8 °F 39.2 °F 93% 29.87 in 10.0 mi West 8.1 mph - N/A   Overcast
5:15 AM 41.0 °F 36.4 °F 39.2 °F 93% 29.88 in 10.0 mi West 6.9 mph - N/A   Overcast
5:35 AM 41.0 °F 35.8 °F 39.2 °F 93% 29.88 in 10.0 mi West 8.1 mph - N/A   Overcast
5:55 AM 41.0 °F 35.2 °F 39.2 °F 93% 29.88 in 10.0 mi West 9.2 mph - N/A   Overcast
6:15 AM 41.0 °F 34.7 °F 39.2 °F 93% 29.88 in 10.0 mi West 10.4 mph - N/A   Overcast
6:35 AM 41.0 °F 35.8 °F 39.2 °F 93% 29.88 in 10.0 mi West 8.1 mph - N/A   Overcast
7:15 AM 41.0 °F 34.7 °F 37.4 °F 87% 29.88 in 10.0 mi West 10.4 mph - N/A   Overcast
7:55 AM 41.0 °F 36.4 °F 37.4 °F 87% 29.90 in 10.0 mi West 6.9 mph - N/A   Overcast
8:15 AM 41.0 °F 34.7 °F 37.4 °F 87% 29.91 in 5.0 mi West 10.4 mph 16.1 mph N/A   Overcast
8:35 AM 41.0 °F 34.7 °F 37.4 °F 87% 29.92 in 7.0 mi WNW 10.4 mph 17.3 mph N/A   Overcast
9:15 AM 41.0 °F 35.2 °F 39.2 °F 93% 29.93 in 5.0 mi WNW 9.2 mph 17.3 mph N/A   Overcast
9:35 AM 41.0 °F 35.2 °F 39.2 °F 93% 29.93 in 5.0 mi WNW 9.2 mph - N/A   Overcast
9:55 AM 41.0 °F 35.8 °F 39.2 °F 93% 29.93 in 7.0 mi WNW 8.1 mph - N/A   Overcast
10:15 AM 41.0 °F 34.7 °F 37.4 °F 87% 29.95 in 10.0 mi WNW 10.4 mph 18.4 mph N/A   Overcast
10:35 AM 41.0 °F 34.3 °F 35.6 °F 81% 29.95 in 10.0 mi WNW 11.5 mph - N/A   Overcast
10:55 AM 42.8 °F 36.6 °F 35.6 °F 76% 29.94 in 10.0 mi WNW 11.5 mph 21.9 mph N/A   Overcast
11:15 AM 42.8 °F 37.5 °F 35.6 °F 76% 29.95 in 10.0 mi WNW 9.2 mph 19.6 mph N/A   Overcast
11:35 AM 42.8 °F 37.0 °F 37.4 °F 81% 29.95 in 10.0 mi WNW 10.4 mph 16.1 mph N/A   Overcast
11:55 AM 42.8 °F 38.0 °F 37.4 °F 81% 29.95 in 10.0 mi WNW 8.1 mph - N/A   Overcast
12:15 PM 42.8 °F 38.0 °F 37.4 °F 81% 29.95 in 10.0 mi WNW 8.1 mph - N/A   Overcast
12:35 PM 44.6 °F 39.2 °F 35.6 °F 71% 29.93 in 10.0 mi West 10.4 mph - N/A   Overcast
12:55 PM 44.6 °F 37.4 °F 35.6 °F 71% 29.94 in 10.0 mi West 16.1 mph 21.9 mph N/A   Overcast
1:15 PM 44.6 °F 39.2 °F 35.6 °F 71% 29.93 in 10.0 mi WNW 10.4 mph 16.1 mph N/A   Overcast
1:35 PM 44.6 °F 38.8 °F 35.6 °F 71% 29.93 in 10.0 mi West 11.5 mph 17.3 mph N/A   Overcast
1:55 PM 46.4 °F 40.7 °F 35.6 °F 66% 29.92 in 10.0 mi West 12.7 mph - N/A   Overcast
2:15 PM 46.4 °F 41.1 °F 35.6 °F 66% 29.91 in 10.0 mi West 11.5 mph 17.3 mph N/A   Mostly Cloudy
2:35 PM 46.4 °F 40.4 °F 35.6 °F 66% 29.90 in 10.0 mi West 13.8 mph 19.6 mph N/A   Scattered Clouds
2:55 PM 46.4 °F 41.9 °F 35.6 °F 66% 29.90 in 10.0 mi West 9.2 mph - N/A   Mostly Cloudy
3:15 PM 46.4 °F 40.4 °F 33.8 °F 62% 29.90 in 10.0 mi West 13.8 mph - N/A   Overcast
3:35 PM 48.2 °F - 33.8 °F 58% 29.90 in 10.0 mi West 10.4 mph - N/A   Overcast
3:55 PM 48.2 °F - 33.8 °F 58% 29.90 in 10.0 mi West 9.2 mph 16.1 mph N/A   Overcast
4:15 PM 48.2 °F - 33.8 °F 58% 29.90 in 10.0 mi West 9.2 mph - N/A   Overcast
4:35 PM 48.2 °F - 33.8 °F 58% 29.90 in 10.0 mi WSW 10.4 mph - N/A   Overcast
4:55 PM 48.2 °F - 35.6 °F 62% 29.89 in 10.0 mi WSW 6.9 mph - N/A   Overcast
5:15 PM 48.2 °F - 35.6 °F 62% 29.89 in 10.0 mi West 8.1 mph - N/A   Overcast
5:35 PM 46.4 °F 41.5 °F 35.6 °F 66% 29.88 in 10.0 mi WSW 10.4 mph - N/A   Overcast
5:55 PM 46.4 °F 42.9 °F 35.6 °F 66% 29.88 in 10.0 mi West 6.9 mph - N/A   Mostly Cloudy
6:15 PM 46.4 °F 42.4 °F 35.6 °F 66% 29.88 in 10.0 mi WSW 8.1 mph - N/A   Scattered Clouds
6:35 PM 44.6 °F 40.7 °F 35.6 °F 71% 29.89 in 10.0 mi WSW 6.9 mph - N/A   Scattered Clouds
6:55 PM 44.6 °F 40.7 °F 33.8 °F 66% 29.90 in 10.0 mi West 6.9 mph - N/A   Mostly Cloudy
7:15 PM 44.6 °F 40.2 °F 33.8 °F 66% 29.90 in 10.0 mi West 8.1 mph - N/A   Overcast
7:35 PM 44.6 °F 39.7 °F 33.8 °F 66% 29.91 in 10.0 mi West 9.2 mph - N/A   Overcast
7:55 PM 44.6 °F 39.7 °F 33.8 °F 66% 29.91 in 10.0 mi West 9.2 mph - N/A   Overcast
8:15 PM 44.6 °F 39.7 °F 33.8 °F 66% 29.92 in 10.0 mi West 9.2 mph - N/A   Overcast
8:35 PM 46.4 °F 41.1 °F 33.8 °F 62% 29.93 in 10.0 mi West 11.5 mph 20.7 mph N/A   Overcast
8:55 PM 46.4 °F 40.7 °F 33.8 °F 62% 29.95 in 10.0 mi WNW 12.7 mph 17.3 mph N/A   Overcast
9:15 PM 44.6 °F 39.7 °F 33.8 °F 66% 29.96 in 10.0 mi WNW 9.2 mph - N/A   Mostly Cloudy
9:35 PM 44.6 °F 39.2 °F 33.8 °F 66% 29.97 in 10.0 mi WNW 10.4 mph - N/A   Clear
10:15 PM 42.8 °F 35.8 °F 32.0 °F 66% 29.99 in 10.0 mi NW 13.8 mph 19.6 mph N/A   Clear
10:35 PM 42.8 °F 37.0 °F 32.0 °F 66% 30.00 in 10.0 mi NNW 10.4 mph - N/A   Clear
10:55 PM 41.0 °F 34.7 °F 32.0 °F 70% 30.01 in 10.0 mi NW 10.4 mph 17.3 mph N/A   Clear
11:15 PM 41.0 °F 34.3 °F 32.0 °F 70% 30.02 in 10.0 mi NW 11.5 mph 16.1 mph N/A   Clear
11:35 PM 39.2 °F 35.0 °F 32.0 °F 75% 30.03 in 10.0 mi NNW 5.8 mph - N/A   Clear
11:55 PM 37.4 °F 33.8 °F 32.0 °F 81% 30.04 in 10.0 mi NNW 4.6 mph - N/A   Scattered Clouds